Вернуться в каталог

FENGYUN 1C DEB

АктивенSSO
NORAD 35139·DEBRIS·🇨🇳 China

Запущен May 10, 1999 с Taiyuan Satellite Launch Center

Loading…

Ближайшие Пролёты (ближайшие 24 часа)

TLE

УстаревающийSource: Space-Track

Эпоха: Sep 7, 2026, 05:23 UTC

1 35139U 99025DLT 26250.22456185  .00000376  00000-0  18735-3 0  9997
2 35139  98.5874 253.0522 0067396 238.5198 120.9382 14.21487796679679

Отслеживайте FENGYUN 1C DEB в реальном времени с AllMySat

Download on the App Store